x

8774770 - Rockport, Tx (rcpt2) Weather Station

3:54pm - Fri 9th Dec 2016 All times are CST. -6 hours from GMT.

  • Wind
    7mph, 14mph gusts
  • Sea Temp 58°f
  • Air Temp 48°f
  • Sea Pressure 1032.3mb
  • 8774770 - Rockport, Tx
  • 8774770 - Rockport, Tx

More Historic Weather Station data

Upgrade to MSW Pro to gain access to the past 30 days of data for over 8000 Wavebouys and Weather Stations around the globe.

Join Pro

Comparision Forecast

View Surf forecast
   
Fri 12/09 3:54pm 7 14 mph 1032.3mb 58f 48f
3:48pm 8 13 mph 1032.4mb 58f 48f
3:42pm 7 13 mph 1032.4mb 58f 48f
3:36pm 7 15 mph 1032.4mb 58f 48f
3:30pm 3 13 mph 1032.4mb 58f 48f
3:24pm 9 13 mph 1032.6mb 58f 47f
3:18pm 8 14 mph 1032.5mb 58f 47f
3:12pm 8 14 mph 1032.6mb 58f 47f
3:06pm 9 14 mph 1032.6mb 58f 47f
3:00pm 6 14 mph 1032.7mb 58f 48f
2:54pm 9 14 mph 1032.8mb 58f 47f
2:48pm 8 15 mph 1032.8mb 58f 47f
2:42pm 8 15 mph 1032.8mb 58f 48f
2:36pm 11 16 mph 1032.9mb 58f 47f
2:30pm 10 16 mph 1032.8mb 58f 47f
2:24pm 9 15 mph 1032.8mb 58f 47f
2:18pm 11 15 mph 1033mb 58f 47f
2:12pm 10 13 mph 1033.1mb 58f 47f
2:06pm 9 15 mph 1033.2mb 58f 46f
2:00pm 11 14 mph 1033.2mb 58f 46f
1:54pm 7 15 mph 1033.2mb 58f 47f
1:48pm 8 14 mph 1033.3mb 58f 46f
1:42pm 9 15 mph 1033.2mb 58f 46f
1:36pm 8 14 mph 1033.3mb 58f 46f
1:30pm 8 13 mph 1033.4mb 58f 46f
1:24pm 8 15 mph 1033.5mb 58f 45f
1:18pm 7 10 mph 1033.5mb 58f 46f
1:12pm 6 14 mph 1033.6mb 58f 46f
1:06pm 8 15 mph 1033.7mb 58f 46f
1:00pm 6 13 mph 1033.9mb 58f 46f
12:54pm 6 13 mph 1034mb 58f 46f
12:48pm 7 10 mph 1034.1mb 58f 45f
12:42pm 7 14 mph 1034.1mb 58f 45f
12:36pm 2 8 mph 1034.2mb 58f 46f
12:30pm 7 14 mph 1034.4mb 58f 45f
12:24pm 7 11 mph 1034.6mb 58f 45f
12:18pm 8 11 mph 1034.7mb 58f 45f
12:12pm 5 13 mph 1034.9mb 58f 46f
12:06pm 9 13 mph 1034.9mb 58f 44f
12:00pm 8 13 mph 1034.9mb 58f 44f
11:54am 6 13 mph 1035mb 58f 44f
11:48am 6 10 mph 1035mb 58f 45f
11:42am 8 14 mph 1035.3mb 58f 44f
11:36am 3 14 mph 1035.2mb 58f 45f
11:30am 6 15 mph 1035.4mb 58f 44f
11:24am 7 14 mph 1035.6mb 58f 44f
11:18am 10 14 mph 1035.8mb 58f 43f
11:12am 11 16 mph 1035.7mb 58f 44f
11:06am 7 14 mph 1035.8mb 58f 44f
11:00am 9 14 mph 1036.1mb 58f 43f
10:54am 9 16 mph 1036.1mb 58f 43f
10:48am 10 17 mph 1036.1mb 58f 43f
10:42am 7 15 mph 1036mb 58f 43f
10:36am 7 15 mph 1036.1mb 58f 42f
10:30am 9 15 mph 1036.1mb 58f 42f
10:24am 9 17 mph 1036.1mb 58f 42f
10:18am 10 16 mph 1036.2mb 58f 42f
10:12am 7 15 mph 1036.2mb 58f 42f
10:06am 6 16 mph 1036.2mb 58f 43f
10:00am 11 17 mph 1036.3mb 58f 42f
9:54am 8 20 mph 1036.3mb 58f 42f
9:48am 7 20 mph 1036.3mb 58f 42f
9:42am 13 17 mph 1036.4mb 58f 41f
9:36am 13 18 mph 1036.5mb 59f 41f
9:30am 9 16 mph 1036.3mb 59f 41f
9:24am 11 20 mph 1036.3mb 59f 41f
9:18am 8 18 mph 1036.3mb 59f 41f
9:12am 10 20 mph 1036.3mb 59f 41f
9:06am 14 21 mph 1036.2mb 59f 41f
9:00am 11 18 mph 1036.2mb 59f 41f
8:54am 13 21 mph 1036.2mb 59f 40f
8:48am 13 21 mph 1036.1mb 59f 40f
8:42am 11 16 mph 1036mb 59f 40f
8:36am 11 20 mph 1036mb 59f 40f
8:30am 11 16 mph 1036.1mb 59f 40f
8:24am 9 20 mph 1036.2mb 59f 40f
8:18am 14 22 mph 1036mb 59f 40f
8:12am 9 22 mph 1035.8mb 59f 40f
8:06am 14 22 mph 1035.8mb 59f 40f
8:00am 14 21 mph 1035.7mb 59f 40f
7:54am 11 20 mph 1035.7mb 59f 40f
7:48am 13 18 mph 1035.6mb 59f 40f
7:42am 11 18 mph 1035.6mb 59f 40f
7:36am 14 22 mph 1035.5mb 59f 40f
7:30am 14 23 mph 1035.3mb 59f 40f
7:24am 14 22 mph 1035.4mb 59f 40f
7:18am 14 22 mph 1035.2mb 59f 40f
7:12am 11 17 mph 1035.2mb 59f 39f
7:06am 11 18 mph 1035.2mb 59f 40f
7:00am 10 18 mph 1035.2mb 59f 39f
6:54am 9 16 mph 1035.3mb 59f 40f
6:48am 9 15 mph 1035.5mb 59f 40f
6:42am 11 17 mph 1035.4mb 59f 40f
6:36am 10 17 mph 1035.4mb 59f 39f
6:30am 10 18 mph 1035.2mb 59f 39f
6:24am 10 16 mph 1035.2mb 59f 40f
6:18am 13 18 mph 1035mb 59f 39f
6:12am 11 22 mph 1034.9mb 59f 40f
6:06am 10 17 mph 1034.9mb 60f 40f
6:00am 11 22 mph 1034.8mb 60f 40f
5:54am 14 21 mph 1034.9mb 60f 40f
5:48am 11 20 mph 1034.9mb 60f 40f
5:42am 14 21 mph 1034.9mb 60f 40f
5:36am 13 18 mph 1034.8mb 60f 40f
5:30am 14 24 mph 1034.9mb 60f 40f
5:24am 14 24 mph 1035mb 60f 40f
5:18am 9 16 mph 1034.8mb 60f 40f
5:12am 13 21 mph 1034.8mb 60f 40f
5:06am 14 18 mph 1034.8mb 60f 40f
5:00am 14 22 mph 1034.8mb 60f 40f
4:54am 10 20 mph 1034.8mb 60f 40f
4:48am 14 21 mph 1034.8mb 60f 40f
4:42am 14 18 mph 1034.8mb 60f 40f
4:36am 10 18 mph 1034.8mb 60f 40f
4:30am 9 17 mph 1034.8mb 60f 40f
4:24am 13 18 mph 1034.8mb 60f 40f
4:18am 10 17 mph 1034.7mb 60f -
4:12am 11 21 mph 1034.8mb 60f 40f
4:06am 15 21 mph 1034.9mb 59f 40f
4:00am 15 24 mph 1034.8mb 59f 40f
3:54am 14 23 mph 1034.7mb 59f 40f
3:48am 17 29 mph 1034.8mb 59f 40f
3:42am 14 26 mph 1034.7mb 59f 40f
3:36am 16 25 mph 1034.7mb 59f 40f
3:30am 15 26 mph 1034.6mb 59f 40f
3:24am 15 21 mph 1034.6mb 59f 40f
3:18am 15 23 mph 1034.6mb 59f 40f
3:12am 13 20 mph 1034.5mb 60f 40f
3:06am 13 22 mph 1034.5mb 60f 40f
3:00am 15 21 mph 1034.5mb 60f 40f
2:54am 11 21 mph 1034.5mb 60f 40f
2:48am 14 21 mph 1034.5mb 60f 40f
2:42am 15 22 mph 1034.4mb 60f 40f
2:36am 15 22 mph 1034.4mb 60f 41f
2:30am 14 22 mph 1034.4mb 60f 41f
2:24am 13 16 mph 1034.3mb 60f 41f
2:18am 10 18 mph 1034.3mb 60f 41f
2:12am 13 22 mph 1034.4mb 60f 41f
2:06am 13 18 mph 1034.3mb 60f 41f
2:00am 13 23 mph 1034.4mb 60f 41f
1:54am 9 16 mph 1034.4mb 60f 41f
1:48am 8 14 mph 1034.3mb 60f 41f
1:42am 9 18 mph 1034.4mb 60f 41f
1:36am 13 21 mph 1034.5mb 60f 41f
1:30am 13 21 mph 1034.5mb 60f 41f
1:24am 9 17 mph 1034.4mb 60f 41f
1:18am 14 22 mph 1034.4mb 60f 41f
1:12am 10 16 mph 1034.3mb 60f 42f
1:06am 14 21 mph 1034.5mb 60f 42f
1:00am 13 20 mph 1034.5mb 60f 42f
12:54am 10 17 mph 1034.5mb 60f 42f
12:48am 10 15 mph 1034.6mb 60f 42f
12:42am 11 20 mph 1034.6mb 60f 42f
12:36am 14 20 mph 1034.9mb 60f 42f
12:30am 10 20 mph 1034.8mb 60f 42f
12:24am 8 20 mph 1034.8mb 60f 42f
12:18am 11 20 mph 1034.7mb 60f 42f
12:12am 15 20 mph 1034.7mb 60f 42f
12:06am 13 18 mph 1034.7mb 60f 42f
12:00am 11 20 mph 1034.7mb 60f 42f
Thu 12/08 11:54pm 10 22 mph 1034.8mb 60f 42f
11:48pm 15 24 mph 1034.9mb 60f 42f
11:42pm 16 24 mph 1034.8mb - -
11:36pm 16 25 mph 1034.8mb - -
11:30pm 16 22 mph 1034.7mb 60f 42f
11:24pm 14 29 mph 1034.6mb 60f 42f
11:18pm 18 24 mph 1034.6mb 60f -
11:12pm 14 22 mph 1034.6mb 60f 42f
11:06pm 14 21 mph 1034.7mb 60f 42f
11:00pm 14 23 mph 1034.6mb 60f 42f
10:54pm 15 28 mph 1034.5mb 60f 42f
10:48pm 16 30 mph 1034.4mb 60f 42f
10:42pm 15 31 mph 1034.5mb 60f 42f
10:36pm 17 26 mph 1034.5mb 60f 42f
10:30pm 17 26 mph 1034.6mb 60f 42f
10:24pm 15 25 mph 1034.6mb 60f 42f
10:18pm 16 26 mph 1034.5mb 60f 42f
10:12pm 14 23 mph 1034.5mb 60f 42f
10:06pm 17 24 mph 1034.5mb 60f 42f
10:00pm 17 26 mph 1034.5mb 60f 42f
9:54pm 15 20 mph 1034.4mb 60f 42f
9:48pm 14 23 mph 1034.3mb 60f 42f
9:42pm 15 20 mph 1034.3mb 60f 42f
9:36pm 13 22 mph 1034.2mb 61f 42f
9:30pm 15 21 mph 1034.1mb 61f 42f
9:24pm 13 17 mph 1034.1mb 61f 42f
9:18pm 13 21 mph 1034mb 61f -
9:12pm 11 22 mph 1033.9mb 61f 42f
9:06pm 11 26 mph 1034mb 61f 42f
9:00pm 16 24 mph 1033.9mb 61f 42f
8:54pm 11 22 mph 1033.7mb 61f 42f
8:48pm 14 20 mph 1033.7mb 61f 43f
8:42pm 16 28 mph 1033.6mb 61f 43f
8:36pm 13 23 mph 1033.5mb 61f 43f
8:30pm 16 23 mph 1033.5mb 61f 43f
8:24pm 14 31 mph 1033.4mb 61f 43f
8:18pm 16 29 mph 1033.3mb 61f 43f
8:12pm 14 31 mph 1033.1mb 61f 43f
8:06pm 13 25 mph 1032.9mb 61f 43f
8:00pm 18 26 mph 1033mb 61f 43f
7:54pm 15 25 mph 1032.7mb 61f 43f
7:48pm 15 25 mph 1032.8mb 61f 44f
7:42pm 14 25 mph 1032.6mb 61f 44f
7:36pm 16 22 mph 1032.6mb 61f 44f
7:30pm 17 28 mph 1032.6mb 61f 44f
7:24pm 15 25 mph 1032.5mb 61f 44f
7:18pm 16 26 mph 1032.5mb 61f 44f
7:12pm 17 28 mph 1032.5mb 61f 44f
7:06pm 17 29 mph 1032.5mb 61f 44f
7:00pm 14 23 mph 1032.1mb 61f 44f
6:54pm 15 24 mph 1032.1mb 61f 45f
6:48pm 15 23 mph 1031.8mb 61f 45f
6:42pm 14 25 mph 1031.6mb 61f 45f
6:36pm 18 26 mph 1031.8mb 61f 45f
6:30pm 10 26 mph 1031.4mb 61f 46f
6:24pm 18 24 mph 1031.4mb 61f 46f
6:18pm 14 24 mph 1031.3mb 61f -
6:12pm 15 24 mph 1031.3mb 61f 46f
6:06pm 11 21 mph 1031.2mb 61f 46f
6:00pm 16 23 mph 1031.1mb 61f 46f
5:54pm 16 24 mph 1031mb 61f 46f
5:48pm 13 20 mph 1030.9mb 61f 46f
5:42pm 14 24 mph 1030.9mb 61f 46f
5:36pm 11 24 mph 1030.7mb 61f 46f
5:30pm 14 21 mph 1030.7mb 61f 46f
5:24pm 16 24 mph 1030.7mb 61f 46f
5:18pm 14 23 mph 1030.6mb 61f 46f
5:12pm 13 18 mph 1030.6mb 61f 46f
5:06pm 16 23 mph 1030.6mb 61f 45f
5:00pm 15 24 mph 1030.4mb 61f 45f
4:54pm 15 22 mph 1030.4mb 61f 45f
4:48pm 14 22 mph 1030.4mb 61f 45f
4:42pm 16 24 mph 1030.3mb 61f 45f
4:36pm 15 24 mph 1030mb 61f 45f
4:30pm 17 25 mph 1030mb 61f 45f
4:24pm 16 22 mph 1029.9mb 61f 46f
4:18pm 17 24 mph 1029.7mb 61f 46f
4:12pm 16 24 mph 1029.6mb 61f 46f
4:06pm 14 21 mph 1029.6mb 61f 46f
4:00pm 14 21 mph 1029.8mb 61f 46f
3:54pm 15 22 mph 1029.6mb 61f 46f
3:48pm 14 25 mph 1029.4mb 61f 46f
3:42pm 16 31 mph 1029.1mb 61f 46f
3:36pm 17 26 mph 1028.8mb 61f 46f
3:30pm 16 24 mph 1028.7mb 61f 46f
3:24pm 14 24 mph 1028.3mb 61f 47f
3:18pm 15 23 mph 1028.2mb 61f 47f
3:12pm 15 26 mph 1028.3mb 61f 47f
3:06pm 17 28 mph 1028.3mb 61f 47f
3:00pm 15 26 mph 1028.4mb 61f 47f
2:54pm 15 25 mph 1028.4mb 61f 47f
2:48pm 14 26 mph 1028.4mb 61f 47f
2:42pm 17 25 mph 1028.3mb 61f 47f
2:36pm 14 22 mph 1028mb 61f 47f
2:30pm 14 23 mph 1028.2mb 61f 47f
2:24pm 14 21 mph 1028mb 61f 47f
2:18pm 14 25 mph 1027.6mb 61f -
2:12pm 17 24 mph 1027.5mb 61f 47f
2:06pm 17 23 mph 1028.1mb 61f 47f
2:00pm 10 23 mph 1028.2mb 61f 48f
1:54pm 16 30 mph 1028mb 61f 48f
1:48pm 17 29 mph 1027.9mb 61f 48f
1:42pm 14 22 mph 1027.8mb 61f 48f
1:36pm 14 30 mph 1027.7mb 61f 48f
1:30pm 20 30 mph 1027.5mb 61f 48f
1:24pm 21 36 mph 1027.2mb 61f 48f
1:18pm 21 33 mph 1027mb 61f 48f
1:12pm 20 33 mph 1026.9mb 61f 48f
1:06pm 22 40 mph 1027.1mb 62f 48f
1:00pm 17 28 mph 1027.1mb 62f 48f
12:54pm 15 28 mph 1027.2mb 62f 48f
12:48pm 14 29 mph 1027.3mb 62f 49f
12:42pm 16 26 mph 1027.3mb 62f 49f
12:36pm 17 28 mph 1027.3mb 62f 49f
12:30pm 20 26 mph 1027.4mb 62f 49f
12:24pm 20 37 mph 1027.3mb 62f 49f
12:18pm 18 28 mph 1027.2mb 62f 49f
12:12pm 17 32 mph 1027.1mb 62f 49f
12:06pm 20 37 mph 1027.1mb 62f 49f
12:00pm 21 36 mph 1027.4mb 62f 49f
11:54am 23 32 mph 1027.6mb 62f 49f
11:48am 21 33 mph 1027.5mb 62f 49f
11:42am 21 36 mph 1027.5mb 62f 49f
11:36am 25 36 mph 1027.7mb 62f 49f
11:30am 23 34 mph 1027.8mb 62f 49f
11:24am 21 29 mph 1027.6mb 62f 50f
11:18am 18 32 mph 1027.7mb 62f 50f
11:12am 15 40 mph 1027.5mb 62f 51f
11:06am 22 36 mph 1027.6mb 62f 51f
11:00am 22 33 mph 1027.6mb 62f 51f
10:54am 22 32 mph 1027.5mb 62f 50f
10:48am 22 29 mph 1027.4mb 62f 50f
10:42am 22 33 mph 1027.2mb 62f 51f
10:36am 23 33 mph 1027.2mb 62f 51f
10:30am 26 41 mph 1027.2mb 62f 51f
10:24am 28 40 mph 1027.3mb 62f 51f
10:18am 21 31 mph 1027mb 62f 52f
10:12am 20 29 mph 1026.8mb 62f 52f
10:06am 20 33 mph 1026.8mb 62f 52f
10:00am 22 38 mph 1026.8mb 62f 52f
9:54am 22 37 mph 1026.7mb 62f 53f
9:48am 24 41 mph 1026.6mb 62f 53f
9:42am 18 31 mph 1026.5mb 62f 53f
9:36am 25 37 mph 1026.4mb 62f 53f
9:30am 22 34 mph 1026.4mb 62f 53f
9:24am 17 32 mph 1026.1mb 62f 53f
9:18am 20 33 mph 1025.8mb 62f 53f
9:12am 25 39 mph 1025.7mb 62f 53f
9:06am 22 37 mph 1025.5mb 62f 54f
9:00am 21 41 mph 1025.7mb 62f 54f
8:54am 26 40 mph 1025.8mb 62f 53f
8:48am 25 36 mph 1025.6mb - -
8:42am 23 33 mph 1025.5mb 62f 54f
8:36am 17 29 mph 1025.2mb 62f 54f
8:30am 18 30 mph 1025mb 62f 55f
8:24am 18 39 mph 1024.6mb 62f 55f
8:18am 21 34 mph 1024.8mb 62f -
8:12am 25 38 mph 1024.6mb 62f 55f
8:06am 24 39 mph 1024.6mb 62f 55f
8:00am 20 31 mph 1024.4mb 62f 55f
7:54am 15 26 mph 1024.2mb 62f 55f
7:48am 17 33 mph 1024.1mb 62f 55f
7:42am 17 28 mph 1024mb 62f 55f
7:36am 22 37 mph 1023.7mb 62f 55f
7:30am 16 37 mph 1023.3mb 62f 56f
7:24am 20 32 mph 1023.4mb 62f 55f
7:18am 21 31 mph 1023.4mb 62f 55f
7:12am 20 26 mph 1023.2mb 62f 55f
7:06am 18 28 mph 1023.1mb 62f 55f
7:00am 20 34 mph 1023mb 62f 56f
6:54am 24 37 mph 1023.2mb 62f 56f
6:48am 24 33 mph 1023mb 62f 56f
6:42am 20 34 mph 1022.8mb 62f 56f
6:36am 22 36 mph 1022.7mb 62f 56f
6:30am 22 37 mph 1022.6mb 62f 56f
6:24am 20 29 mph 1022.4mb 62f 56f
6:18am 20 32 mph 1022.2mb 62f 56f
6:12am 20 32 mph 1022mb 62f 56f
6:06am 24 36 mph 1022mb 62f 56f
6:00am 22 31 mph 1021.7mb 62f 56f
5:54am 23 33 mph 1021.6mb 62f 56f
5:48am 15 26 mph 1021.4mb - -
5:42am 18 30 mph 1021.5mb 62f 56f
5:36am 17 28 mph 1021.3mb 62f 56f
5:30am 21 34 mph 1021.3mb 62f 56f
5:24am 20 32 mph 1021.3mb 62f 56f
5:18am 21 33 mph 1021.1mb 62f 56f
5:12am 24 33 mph 1021.2mb 62f 56f
5:06am 21 28 mph 1020.9mb 62f 56f
5:00am 20 28 mph 1020.9mb 62f 56f
4:54am 21 32 mph 1020.9mb 62f 56f
4:48am 20 30 mph 1020.8mb 62f -
4:42am 23 34 mph 1020.9mb 62f 56f
4:36am 20 32 mph 1020.8mb 62f 56f
4:30am 15 29 mph 1020.6mb 62f 57f
4:24am 21 30 mph 1020.6mb 62f 57f
4:18am 22 30 mph 1020.6mb 62f 57f
4:12am 17 29 mph 1020.5mb 62f 57f
4:06am 22 31 mph 1020.4mb 62f 57f
4:00am 20 28 mph 1020.4mb 62f 57f
3:54am 15 28 mph 1020.3mb 62f 57f
3:48am 20 28 mph 1020.4mb 62f 57f
3:42am 21 32 mph 1020.5mb 62f 57f
3:36am 18 30 mph 1020.4mb 62f 57f
3:30am 20 29 mph 1020.4mb 62f 57f
3:24am 17 29 mph 1020.3mb 62f 57f
3:18am 17 28 mph 1020.3mb 62f 57f
3:12am 20 30 mph 1020.4mb 62f 57f
3:06am 17 29 mph 1020.1mb 62f 58f
3:00am 20 30 mph 1020.1mb 62f 58f
2:54am 22 32 mph 1020mb 62f 58f
2:48am 16 25 mph 1019.9mb 62f 58f
2:42am 17 29 mph 1019.9mb 62f 58f
2:36am 17 30 mph 1019.9mb 62f 58f
2:30am 20 29 mph 1019.8mb 62f 58f
2:24am 16 29 mph 1019.9mb 62f 58f
2:18am 15 29 mph 1019.8mb 62f 58f
2:12am 14 25 mph 1019.8mb 62f 58f
2:06am 15 23 mph 1019.8mb 62f 58f
2:00am 14 26 mph 1019.7mb 62f 59f
1:54am 11 24 mph 1019.6mb 62f 58f
1:48am 15 28 mph 1019.5mb 62f -
1:42am 14 24 mph 1019.3mb 62f 59f
1:36am 18 28 mph 1019mb 62f 59f
1:30am 21 29 mph 1019mb 62f 59f
1:24am 20 29 mph 1019mb 62f 59f
1:18am 16 25 mph 1019mb 62f 59f
1:12am 15 22 mph 1018.9mb 62f 59f
1:06am 13 29 mph 1018.9mb 62f 59f
1:00am 15 24 mph 1018.9mb 62f 59f
12:54am 15 23 mph 1018.8mb 62f 59f
12:48am 15 28 mph 1018.8mb 62f -
12:42am 14 23 mph 1018.9mb 62f -
12:36am 14 20 mph 1018.9mb 62f -
12:30am 13 22 mph 1018.9mb 62f 59f
12:24am 11 17 mph 1018.9mb 62f 59f
12:18am 14 21 mph 1018.8mb 62f 59f
12:12am 14 23 mph 1018.8mb 62f 59f
12:06am 14 23 mph 1018.8mb 62f 59f
12:00am 15 23 mph 1018.8mb 62f 59f
Wed 12/07 11:54pm 13 21 mph 1018.8mb 62f 60f
11:48pm 15 21 mph 1018.7mb - -
11:42pm 16 24 mph 1018.8mb 62f -
11:36pm 14 22 mph 1018.8mb 62f -
11:30pm 14 23 mph 1018.7mb 62f 60f
11:24pm 10 22 mph 1018.7mb 62f 60f
11:18pm 11 20 mph 1018.7mb 62f 60f
11:12pm 10 18 mph 1018.8mb 62f 60f
11:06pm 11 17 mph 1018.8mb 62f 60f
11:00pm 11 20 mph 1018.7mb 62f 60f
10:54pm 10 16 mph 1018.6mb 62f 60f
10:48pm 10 17 mph 1018.6mb 62f 60f
10:42pm 9 16 mph 1018.6mb 62f 60f
10:36pm 13 16 mph 1018.5mb 62f 60f
10:30pm 10 18 mph 1018.4mb 62f 60f
10:24pm 11 18 mph 1018.4mb 62f 60f
10:18pm 9 16 mph 1018.3mb 62f 60f
10:12pm 11 18 mph 1018.3mb 62f 60f
10:06pm 14 20 mph 1018.4mb 62f 60f
10:00pm 13 17 mph 1018.3mb 62f 60f
9:54pm 13 20 mph 1018.2mb 62f 60f
9:48pm 10 18 mph 1018.1mb 62f 60f
9:42pm 11 17 mph 1018.2mb 62f 60f
9:36pm 9 16 mph 1018.1mb 62f 61f
9:30pm 11 16 mph 1018.1mb 62f 61f
9:24pm 9 17 mph 1017.9mb 62f 61f
9:18pm 10 15 mph 1017.8mb 62f 61f
9:12pm 10 17 mph 1017.8mb 62f 61f
9:06pm 10 15 mph 1017.7mb 62f 61f
9:00pm 13 17 mph 1017.7mb 62f 61f
8:54pm 9 14 mph 1017.6mb 62f 61f
8:48pm 11 18 mph 1017.6mb 62f 61f
8:42pm 9 14 mph 1017.6mb 62f 61f
8:36pm 10 14 mph 1017.6mb 62f 61f
8:30pm 7 18 mph 1017.5mb 62f 61f
8:24pm 9 14 mph 1017.4mb 62f 61f
8:18pm 9 14 mph 1017.3mb 62f 61f
8:12pm 8 14 mph 1017.2mb 62f 61f
8:06pm 10 16 mph 1017.2mb 62f 61f
8:00pm 9 17 mph 1017.1mb 62f 61f
7:54pm 10 17 mph 1017mb 62f 61f
7:48pm 13 20 mph - - -
7:42pm 11 20 mph 1017mb 62f 61f
7:36pm 13 20 mph 1016.9mb 62f 61f
7:30pm 11 18 mph 1016.7mb 62f 61f
7:24pm 13 18 mph 1016.8mb 62f 61f
7:18pm 9 14 mph 1016.9mb 62f 61f
7:12pm 13 17 mph 1016.7mb 62f 62f
7:06pm 8 16 mph 1016.6mb 62f 62f
7:00pm 9 15 mph 1016.6mb 62f 62f
6:54pm 11 15 mph 1016.5mb 62f 62f
6:48pm 10 14 mph 1016.5mb 62f 62f
6:42pm 8 15 mph 1016.4mb 62f 62f
6:36pm 8 14 mph 1016.3mb 62f 62f
6:30pm 8 11 mph 1016.3mb 62f 63f
6:24pm 8 15 mph 1016.2mb 62f 63f
6:18pm 8 13 mph 1016.2mb 62f 63f
6:12pm 8 14 mph 1016.1mb 62f 63f
6:06pm 9 14 mph 1015.9mb 62f 63f
6:00pm 10 14 mph 1015.9mb 62f 63f
5:54pm 8 13 mph 1015.8mb 62f 62f
5:48pm 8 13 mph 1015.7mb 62f 62f
5:42pm 9 14 mph 1015.5mb 62f 62f
5:36pm 8 14 mph 1015.5mb 62f 62f
5:30pm 8 13 mph 1015.5mb 62f 62f
5:24pm 9 14 mph 1015.5mb 62f 62f
5:18pm 8 14 mph 1015.4mb 62f 62f
5:12pm 8 10 mph 1015.4mb 62f 62f
5:06pm 7 11 mph 1015.3mb 63f 62f
5:00pm 7 11 mph 1015.3mb 63f 62f
4:54pm 9 14 mph 1015.3mb 63f 62f
4:48pm 8 13 mph 1015.3mb 63f 62f
4:42pm 9 14 mph 1015.2mb 63f 62f
4:36pm 7 11 mph 1015.2mb 63f 62f
4:30pm 8 14 mph 1015.1mb 63f 62f
4:24pm 10 14 mph 1015.1mb 63f 62f
4:18pm 9 13 mph 1014.9mb 63f -
4:12pm 9 14 mph 1014.8mb 63f 62f
4:06pm 9 14 mph 1014.8mb 63f 63f
4:00pm 8 13 mph 1014.7mb 63f 63f
3:54pm 9 14 mph 1014.8mb 63f 62f
3:48pm 9 13 mph 1014.7mb 63f 62f
3:42pm 6 14 mph 1014.6mb 63f 63f
3:36pm 6 13 mph 1014.6mb 63f 62f
3:30pm 9 15 mph 1014.5mb 63f 62f
3:24pm 6 11 mph 1014.4mb 63f 63f
3:18pm 6 11 mph 1014.4mb 63f 63f
3:12pm 2 8 mph 1014.4mb 63f 63f
3:06pm 5 10 mph 1014.4mb 63f 63f
3:00pm 5 11 mph 1014.5mb 63f 63f
2:54pm 3 10 mph 1014.5mb 63f 63f
2:48pm 6 11 mph 1014.5mb 63f -
2:42pm 5 11 mph 1014.5mb 63f 63f
2:36pm 5 10 mph 1014.5mb 63f 62f
2:30pm 3 13 mph 1014.5mb 63f 62f
2:24pm 6 10 mph 1014.6mb 63f 62f
2:18pm 7 11 mph 1014.5mb 63f -
2:12pm 3 10 mph 1014.6mb 63f 61f
2:06pm 8 13 mph 1014.7mb 63f 61f
2:00pm 2 13 mph 1014.7mb 63f 61f
1:54pm 6 14 mph 1014.8mb 63f 61f
1:48pm 3 11 mph 1014.8mb 63f -
1:42pm 2 13 mph 1014.7mb 63f 61f
1:36pm 2 10 mph 1014.5mb 63f 61f
1:30pm 2 8 mph 1014.7mb 63f 61f
1:24pm 3 13 mph 1014.8mb 63f 60f
1:18pm 1 8 mph 1014.9mb 63f 60f
1:12pm 3 11 mph 1015mb 63f 60f
1:06pm 2 8 mph 1015.2mb 63f 59f
1:00pm 2 11 mph 1015.1mb 63f 59f
12:54pm 1 9 mph 1015.2mb 63f 59f
12:48pm 3 11 mph 1015.4mb 63f 58f
12:42pm 5 11 mph 1015.6mb 63f 58f
12:36pm 5 13 mph 1015.9mb 63f 58f
12:30pm 9 13 mph 1016mb 63f 58f
12:24pm 8 14 mph 1016.1mb 63f 58f
12:18pm 8 14 mph 1016.3mb 63f 58f
12:12pm 9 14 mph 1016.4mb 63f 58f
12:06pm 10 14 mph 1016.5mb 63f 58f
12:00pm 7 14 mph 1016.7mb 63f 58f
11:54am 8 13 mph 1016.8mb 63f 58f
11:48am 7 13 mph 1017mb 63f 58f
11:42am 3 14 mph 1017mb 63f 58f
11:36am 7 14 mph 1017.2mb 63f 58f
11:30am 11 16 mph 1017.3mb 63f 57f
11:24am 9 15 mph 1017.4mb 63f 57f
11:18am 8 14 mph 1017.5mb 63f 57f
11:12am 10 14 mph 1017.6mb 63f 57f
11:06am 9 13 mph 1017.7mb 63f 57f
11:00am 9 13 mph 1017.7mb 63f 57f
10:54am 8 14 mph 1017.7mb 63f 57f
10:48am 8 15 mph 1017.8mb 63f 57f
10:42am 6 13 mph 1017.7mb 63f 57f
10:36am 7 13 mph 1017.8mb 63f 57f
10:30am 6 14 mph 1017.8mb 63f 57f
10:24am 9 14 mph 1017.7mb 63f 57f
10:18am 3 14 mph 1017.7mb 63f 57f
10:12am 9 14 mph 1017.7mb 63f 57f
10:06am 5 15 mph 1017.6mb 63f 57f
10:00am 5 13 mph 1017.6mb 63f 57f
9:54am 6 15 mph 1017.6mb 63f 57f
9:48am 8 13 mph 1017.6mb 63f 57f
9:42am 5 11 mph 1017.6mb 63f 57f
9:36am 5 11 mph 1017.6mb 63f 57f
9:30am 6 13 mph 1017.5mb 63f 56f
9:24am 8 13 mph 1017.4mb 63f 57f
9:18am 3 14 mph 1017.2mb 63f -
9:12am 5 11 mph 1017.2mb 63f 57f
9:06am 3 13 mph 1017.1mb 63f 57f
9:00am 3 11 mph 1017mb 63f 57f
8:54am 2 8 mph 1017mb 63f 56f
8:48am 2 10 mph 1016.9mb 63f 56f
8:42am 3 11 mph 1017mb 63f 56f
8:36am 2 10 mph 1016.9mb 63f 56f
8:30am 3 13 mph 1016.9mb 63f 56f
8:24am 3 9 mph 1016.8mb 63f 56f
8:18am 3 11 mph 1016.8mb 63f 56f
8:12am 5 11 mph 1016.8mb 63f 55f
8:06am 5 14 mph 1016.8mb 63f 55f
8:00am 3 13 mph 1016.8mb 63f 55f
7:54am 2 14 mph 1016.7mb 63f 55f
7:48am 7 16 mph 1016.8mb 63f 55f
7:42am 5 15 mph 1016.7mb 63f 55f
7:36am 5 13 mph 1016.7mb 63f 55f
7:30am 3 17 mph 1016.8mb 63f 55f
7:24am 10 15 mph 1016.8mb 63f 55f
7:18am 11 17 mph 1016.8mb 63f 55f
7:12am 10 17 mph 1016.7mb 63f 55f
7:06am 7 17 mph 1016.7mb 63f 55f
7:00am 6 14 mph 1016.6mb 63f 55f
6:54am 6 15 mph 1016.7mb 63f 55f
6:48am 2 13 mph 1016.6mb 63f 55f
6:42am 6 14 mph 1016.6mb 63f 54f
6:36am 9 15 mph 1016.6mb 63f 54f
6:30am 9 15 mph 1016.5mb 63f 54f
6:24am 6 14 mph 1016.5mb 63f 54f
6:18am 3 10 mph 1016.4mb 63f 54f
6:12am 3 11 mph 1016.5mb 63f 54f
6:06am 1 8 mph 1016.4mb 63f 54f
6:00am 3 9 mph 1016.3mb 63f 54f
5:54am 5 10 mph 1016.3mb 63f 54f
5:48am 5 9 mph 1016.3mb 63f 54f
5:42am 2 8 mph 1016.2mb 63f 55f
5:36am 2 8 mph 1016.2mb 63f 54f
5:30am 2 8 mph 1016.1mb 63f 55f
5:24am 5 11 mph 1015.9mb 63f 54f
5:18am 1 8 mph 1015.7mb 63f 54f
5:12am 3 8 mph 1015.6mb 63f 55f
5:06am 3 9 mph 1015.6mb 63f 55f
5:00am 2 9 mph 1015.6mb 63f 54f
4:54am 2 9 mph 1015.6mb 63f 54f
4:48am 2 13 mph 1015.7mb 63f -
4:42am 2 7 mph 1015.7mb 63f 54f
4:36am 2 9 mph 1015.8mb 63f 54f
4:30am 1 9 mph 1015.9mb 63f 54f
4:24am 2 6 mph 1016mb 63f 54f
4:18am 1 7 mph 1015.9mb 63f 54f
4:12am 2 9 mph 1015.9mb 63f 54f
4:06am 2 10 mph 1015.9mb 63f 54f
4:00am 2 9 mph 1015.9mb 63f 54f
3:54am 2 8 mph 1015.9mb 63f 54f
3:48am 2 7 mph 1016mb 63f 54f
3:42am 1 10 mph 1016mb 63f 54f
3:36am 2 9 mph 1016.1mb 63f 54f
3:30am 2 8 mph 1016.1mb 63f 54f
3:24am 2 9 mph 1016.1mb 63f 54f
3:18am 2 9 mph 1016.2mb 63f 54f
3:12am 1 11 mph 1016.2mb 63f 54f
3:06am 2 13 mph 1016.1mb 63f 54f
3:00am 2 11 mph 1016.1mb 63f 54f
2:54am 2 9 mph 1016.1mb 63f 54f
2:48am 3 13 mph 1016.2mb 63f 54f
2:42am 2 11 mph 1016.3mb 63f 54f
2:36am 5 11 mph 1016.2mb 63f 54f
2:30am 3 13 mph 1016.3mb 63f 54f
2:24am 3 13 mph 1016.2mb 63f 54f
2:18am 3 15 mph 1016.2mb 63f 54f
2:12am 3 13 mph 1016.1mb 64f 54f
2:06am 5 11 mph 1016.1mb 64f 54f
2:00am 8 16 mph 1016.1mb 64f 54f
1:54am 3 11 mph 1016.2mb 64f 54f
1:48am 3 13 mph 1016.2mb 64f 55f
1:42am 3 15 mph 1016.2mb 64f 55f
1:36am 7 14 mph 1016.3mb 64f 54f
1:30am 3 10 mph 1016.2mb 64f 55f
1:24am 2 14 mph 1016.2mb 64f 55f
1:18am 7 14 mph 1016.3mb 64f 54f
1:12am 9 15 mph 1016.3mb 64f 54f
1:06am 10 15 mph 1016.3mb 64f 54f
1:00am 10 15 mph 1016.2mb 64f 54f
12:54am 7 17 mph 1016.2mb 64f 55f
12:48am 9 17 mph 1016.3mb 64f 55f
12:42am 8 17 mph 1016.2mb 64f 55f
12:36am 6 17 mph 1016.2mb 64f 55f
12:30am 11 20 mph 1016.3mb 64f 55f
12:24am 6 15 mph 1016.3mb 64f 55f
12:18am 2 10 mph 1016.3mb 64f 55f
12:12am 3 16 mph 1016.5mb 64f 55f
12:06am 5 20 mph 1016.5mb 64f 55f
12:00am 6 18 mph 1016.5mb 64f 55f
Tue 12/06 11:54pm 7 16 mph 1016.5mb 64f 55f
11:48pm 7 18 mph 1016.5mb 64f 55f
11:42pm 9 17 mph 1016.5mb 64f 55f
11:36pm 11 18 mph 1016.5mb 64f 55f
11:30pm 11 20 mph 1016.5mb 64f 55f
11:24pm 11 17 mph 1016.5mb 64f 55f
11:18pm 13 18 mph 1016.5mb 64f 55f
11:12pm 14 22 mph 1016.5mb 64f 56f
11:06pm 14 21 mph 1016.5mb 64f 56f
11:00pm 14 21 mph 1016.5mb 64f 56f
10:54pm 15 22 mph 1016.5mb 64f 56f
10:48pm 10 20 mph 1016.5mb 64f 56f
10:42pm 13 20 mph 1016.5mb 64f 56f
10:36pm 14 20 mph 1016.6mb 64f 56f
10:30pm 10 17 mph 1016.6mb 64f 56f
10:24pm 14 20 mph 1016.6mb 64f 56f
10:18pm 11 18 mph 1016.5mb 64f 56f
10:12pm 15 21 mph 1016.5mb 64f 56f
10:06pm 11 18 mph 1016.5mb 64f 56f
10:00pm 10 22 mph 1016.5mb 64f 56f
9:54pm 13 20 mph 1016.4mb 64f 56f
9:48pm 13 22 mph 1016.3mb 64f 56f
9:42pm 13 21 mph 1016.3mb 64f 56f
9:36pm 14 20 mph 1016.3mb 64f 56f
9:30pm 13 22 mph 1016.3mb 64f 56f
9:24pm 13 21 mph 1016.2mb 64f 56f
9:18pm 14 23 mph 1016.2mb - -
9:12pm 16 25 mph 1016.2mb 64f 56f
9:06pm 14 21 mph 1016.1mb 64f 56f
9:00pm 16 25 mph 1016.1mb 64f 57f
8:54pm 13 20 mph 1016.1mb 64f 57f
8:48pm 13 21 mph 1016.1mb 64f 57f
8:30pm 13 17 mph 1015.9mb 64f 58f
8:24pm 11 21 mph 1016mb 64f 58f
8:18pm 11 21 mph 1016mb 64f 59f
8:12pm 10 17 mph 1015.9mb 64f 59f
8:06pm 11 17 mph 1015.8mb 64f 60f
8:00pm 10 17 mph 1015.7mb 64f 60f
7:54pm 13 16 mph 1015.6mb 64f 61f
7:48pm 10 15 mph 1015.5mb 64f 61f
6:54pm 10 14 mph 1014.7mb 64f 65f
6:48pm 10 17 mph 1014.7mb 64f 65f
6:30pm 10 15 mph 1014.4mb 64f 66f
6:24pm 8 15 mph 1014.2mb 64f 67f
6:18pm 8 13 mph 1014.2mb 64f 67f
6:12pm 6 15 mph 1014.1mb 64f 67f
6:06pm 6 11 mph 1014mb 64f 67f
6:00pm 5 10 mph 1013.8mb 64f 66f
5:54pm 2 5 mph 1013.5mb 64f 65f
5:48pm  -  2 mph 1013.4mb 64f 65f
5:42pm 1 2 mph 1013.3mb 64f 65f
5:36pm 2 3 mph 1013.2mb 64f 65f
5:30pm 2 3 mph 1013.1mb 64f 66f
5:24pm 1 2 mph 1013.1mb 64f 66f
5:18pm 1 2 mph 1013mb 64f 67f
5:12pm 1 2 mph 1012.9mb 64f 67f
5:06pm 2 3 mph 1012.9mb 64f 67f
5:00pm 3 5 mph 1012.8mb 64f 68f
4:54pm 5 6 mph 1012.8mb 64f 69f
4:48pm 5
mph
1012.7mb 64f 68f
4:42pm 3 5 mph 1012.7mb 64f 68f
4:36pm 2 3 mph 1012.6mb 64f 67f
4:30pm 3 6 mph 1012.5mb 64f 67f
4:24pm 5
mph
1012.4mb 64f 67f
4:18pm 3 6 mph 1012.4mb 64f 67f
4:12pm 5 6 mph 1012.4mb 63f 66f
4:06pm 6 7 mph 1012.3mb 63f 66f
4:00pm 6 7 mph 1012.3mb 63f 66f
3:54pm 6 8 mph 1012.2mb 63f 67f
3:48pm 7 8 mph 1012.2mb 63f 67f
3:42pm 7 8 mph 1012.1mb 63f 68f
3:36pm 7 8 mph 1012mb 63f 69f
3:30pm 7 10 mph 1012mb 63f 69f
3:24pm 8 9 mph 1011.9mb 63f 68f
3:18pm 5 7 mph 1011.8mb 63f 68f
3:12pm 6 7 mph 1011.8mb 63f 67f
3:06pm 5 6 mph 1011.8mb 63f 67f
3:00pm 5 8 mph 1011.7mb 63f 67f
2:54pm 6 8 mph 1011.7mb 63f 66f
2:48pm 7 8 mph 1011.6mb 63f 66f
2:42pm 5 9 mph 1011.6mb 63f 66f
2:36pm 8 9 mph 1011.5mb 63f 66f
2:30pm 6 8 mph 1011.6mb 63f 66f
2:24pm 6 9 mph 1011.7mb 63f 66f
2:18pm 8 10 mph 1011.7mb 63f 66f
2:12pm 9 10 mph 1011.7mb 63f 66f
2:06pm 8 10 mph 1011.7mb 63f 66f
2:00pm 8 9 mph 1011.8mb 63f 66f
1:54pm 9 10 mph 1011.8mb 63f 66f
1:48pm 8 9 mph 1011.8mb 63f 65f
1:42pm 9 10 mph 1011.8mb 63f 65f
1:36pm 8 10 mph 1011.9mb 63f 65f
1:30pm 8 10 mph 1012.1mb 63f 65f
1:24pm 8 11 mph 1012.1mb 63f 65f
1:18pm 8 11 mph 1012.2mb 63f 66f
1:12pm 6 9 mph 1012.4mb 63f 66f
1:06pm 6 9 mph 1012.4mb 63f 67f
1:00pm 8 10 mph 1012.4mb 62f 65f
12:54pm 8 11 mph 1012.5mb 62f 65f
12:48pm 9 11 mph 1012.4mb 62f -
12:30pm 9 11 mph 1012.6mb 62f 65f
12:24pm 7 10 mph 1012.7mb 62f 65f
12:18pm 8 10 mph 1012.8mb 62f 65f
12:12pm 9 11 mph 1012.9mb 62f 64f
12:06pm 9 13 mph 1012.9mb 62f 64f
12:00pm 10 11 mph 1012.9mb 62f 64f
11:54am 8 11 mph 1013mb 62f 64f
11:48am 9 11 mph 1013.1mb 62f 64f
11:30am 10 11 mph 1013.2mb 62f 64f
11:24am 9 13 mph 1013.3mb 62f 64f
11:18am 7 11 mph 1013.4mb 62f 64f
11:12am 9 11 mph 1013.4mb 62f 64f
11:06am 9 13 mph 1013.6mb 62f 64f
11:00am 6 9 mph 1013.8mb 62f 69f
10:54am 6 9 mph 1013.9mb 62f 65f
10:48am 6 10 mph 1013.9mb 62f 68f
10:42am 8 11 mph 1014mb 62f 68f
10:36am 7 14 mph 1014mb 62f 66f
10:30am 6 11 mph 1014mb 62f 67f
10:24am 7 13 mph 1014mb 62f 65f
10:18am 9 11 mph 1013.9mb 62f 63f
10:12am 11 14 mph 1013.9mb 62f 62f
10:06am 9 14 mph 1013.8mb 62f 63f
10:00am 7 15 mph 1013.8mb 62f 66f
9:54am 9 15 mph 1013.7mb 62f 65f
9:48am 8 15 mph 1013.7mb 62f 64f
9:42am 11 16 mph 1013.6mb 62f 64f
9:36am 10 17 mph 1013.6mb 62f 64f
9:30am 10 16 mph 1013.5mb 62f 63f
9:24am 9 16 mph 1013.5mb 62f 63f
9:18am 9 14 mph 1013.5mb 63f 63f
9:12am 8 14 mph 1013.4mb 63f 62f
9:06am 7 14 mph 1013.3mb 63f 62f
9:00am 8 13 mph 1013.2mb 63f 62f
8:54am 8 13 mph 1013.1mb 63f 62f
8:48am 9 13 mph 1013mb 63f 61f
8:42am 8 13 mph 1012.8mb 63f 61f
8:36am 7 9 mph 1012.7mb 63f 60f
8:30am 7 11 mph 1012.6mb 63f 60f
8:24am 9 14 mph 1012.5mb 63f 59f
8:18am 7 11 mph 1012.6mb 63f 59f
8:12am 9 13 mph 1012.4mb 63f 58f
8:06am 6 10 mph 1012.5mb 63f 58f
8:00am 6 10 mph 1012.5mb 63f 57f
7:54am 6 8 mph 1012.3mb 63f 57f
7:48am 6 9 mph 1012.2mb 63f 56f
7:42am 6 9 mph 1012.2mb 63f 56f
7:36am 6 9 mph 1012.1mb 63f 56f
7:30am 6 9 mph 1012.1mb 63f 56f
7:24am 7 9 mph 1012mb 63f 56f
7:18am 6 9 mph 1011.9mb 63f 55f
7:12am 8 11 mph 1011.9mb 63f 56f
7:06am 6 10 mph 1011.9mb 63f 56f
7:00am 7 11 mph 1011.8mb 63f 55f
6:54am 7 9 mph 1011.6mb 63f 55f
6:48am 7 10 mph 1011.6mb 63f 55f
6:42am 6 9 mph 1011.6mb 63f 55f
6:36am 7 10 mph 1011.6mb 63f 54f
6:30am 6 9 mph 1011.6mb 63f 54f
6:24am 6 8 mph 1011.5mb 63f 54f
6:18am 6 9 mph 1011.3mb 64f 54f
6:12am 5 7 mph 1011.3mb 64f 55f
6:06am 6 9 mph 1011.1mb 64f 55f
6:00am 6 10 mph 1011.1mb 64f 55f
5:54am 6 8 mph 1011mb 64f 55f
5:48am 6 9 mph 1011mb 64f 56f
5:42am 6 8 mph 1011mb 64f 56f
5:36am 5 8 mph 1011mb 64f 56f
5:30am 5 8 mph 1010.9mb 64f 56f
5:24am 6 9 mph 1010.9mb 64f 55f
5:18am 6 10 mph 1010.8mb 64f 55f
5:12am 7 9 mph 1010.9mb 64f 55f
5:06am 7 8 mph 1010.8mb 64f 53f
5:00am 2 3 mph 1010.6mb 64f 54f
4:54am 2 5 mph 1010.6mb 64f 53f
4:48am 3 5 mph 1010.6mb 64f 53f
4:42am 2 3 mph 1010.7mb 64f 54f
4:36am 2 3 mph 1010.6mb 64f 54f
4:30am 1 2 mph 1010.5mb 64f 54f
4:24am  -  1 mph 1010.5mb 64f 53f
4:18am 1 2 mph 1010.5mb 64f 54f
4:12am  -  2 mph 1010.3mb 64f 53f
4:06am 1 3 mph 1010.5mb 64f 53f
4:00am 2 5 mph 1010.6mb 64f 53f
3:54am 2 5 mph 1010.6mb 64f 53f
3:48am 3 6 mph 1010.6mb 64f 53f
3:42am 5 6 mph 1010.6mb 64f 53f
3:36am 2 3 mph 1010.6mb 64f 53f
3:30am 2 3 mph 1010.6mb 64f 53f
3:24am 2 3 mph 1010.6mb 64f 53f
3:18am 2 3 mph 1010.7mb 64f 53f
3:12am 2 3 mph 1010.6mb 64f 54f
3:06am 2 3 mph 1010.6mb 64f 54f
3:00am 2 5 mph 1010.5mb 64f 54f
2:54am 3 5 mph 1010.5mb 64f 54f
2:48am 3 6 mph 1010.4mb 64f 55f
2:42am 5 6 mph 1010.4mb 64f 55f
2:36am 6 8 mph 1010.4mb 64f 55f
2:30am 6 9 mph 1010.5mb 64f 55f
2:24am 5 9 mph 1010.5mb 64f 56f
2:18am 6 9 mph 1010.4mb 64f 56f
2:12am 6 8 mph 1010.3mb 64f 56f
2:06am 6 8 mph 1010.3mb 64f 56f
2:00am 6 7 mph 1010.3mb 64f 56f
1:54am 5 7 mph 1010.2mb 64f 56f
1:48am 5 7 mph 1010.3mb 64f 56f
1:42am 6 8 mph 1010.2mb 64f 56f
1:36am 6 7 mph 1010.1mb 64f 56f
1:30am 5 7 mph 1010.1mb 64f 56f
1:24am 5 9 mph 1010.2mb 64f 56f
1:18am 6 8 mph 1010.2mb 64f -
1:12am 5 9 mph 1010.2mb 64f 56f
1:06am 6 10 mph 1010.2mb 64f 56f
1:00am 6 10 mph 1010.3mb 64f 56f
12:54am 7 10 mph 1010.3mb 64f 56f
12:48am 6 9 mph 1010.3mb 64f 56f
12:42am 6 8 mph 1010.3mb 64f 56f
12:36am 7 10 mph 1010.3mb 64f 56f
12:30am 6 9 mph 1010.3mb 64f 56f
12:24am 7 10 mph 1010.2mb 64f 57f
12:18am 6 10 mph 1010.2mb 64f 57f
12:12am 6 10 mph 1010.2mb 64f 57f
12:06am 6 10 mph 1010.2mb 64f 56f
12:00am 6 9 mph 1010.2mb 64f 56f
Mon 12/05 11:54pm 7 10 mph 1010.2mb 64f 56f
11:48pm 7 9 mph 1010.2mb 64f 56f
11:42pm 6 10 mph 1010.1mb 64f 56f
11:36pm 6 9 mph 1010.1mb 64f 56f
11:30pm 6 8 mph 1010.2mb 64f 56f
11:24pm 6 9 mph 1010.2mb 64f 55f
11:18pm 6 8 mph 1010.2mb 64f 55f
11:12pm 6 8 mph 1010.1mb 64f 55f
11:06pm 6 8 mph 1010.1mb 64f 55f
11:00pm 5 7 mph 1010mb 64f 55f